Superior, WI

10:05 PM CDT on March 24, 2017 (GMT -0500)
Bong

Weather History for KSUW - March, 2014

Change the Weather History Date:

Friday, March 21, 2014

  Actual Average Record
Temperature  
Mean Temperature 28 °F -  
Max Temperature 34 °F 37 °F 55 °F (2012)
Min Temperature 21 °F 21 °F -10 °F (1965)
Degree Days  
Heating Degree Days 37    
Moisture  
Dew Point 28 °F    
Average Humidity 90    
Maximum Humidity 98    
Minimum Humidity 74    
Precipitation  
Precipitation 0.22 in - - ()
Sea Level Pressure  
Sea Level Pressure 29.86 in    
Wind  
Wind Speed 9 mph (NE)    
Max Wind Speed 26 mph    
Max Gust Speed 30 mph    
Visibility 6 miles    
Events Snow    
Averages and records for this station are not official NWS values.
T = Trace of Precipitation, MM = Missing Value Source: NWS Daily Summary

Daily Weather History Graph

Daily Weather History Graph

Search for Another Location

Airport or City:

Trip Planner

Search our weather history database for the weather conditions in past years. The results will help you decide how hot, cold, wet, or windy it might be!

Date:

Astronomy

Mar. 21, 2014 Rise Set
Actual Time 7:09 AM CDT 7:22 PM CDT
Civil Twilight 6:39 AM CDT 7:52 PM CDT
Nautical Twilight 6:03 AM CDT 8:28 PM CDT
Astronomical Twilight 5:27 AM CDT 9:05 PM CDT
Moon No Moon Rise 9:45 AM CDT (3/21)
Length of Visible Light 13h 13m
Length of Day
12h 13m
Waning Gibbous, 75% of the Moon is Illuminated
Mar 21
Waning Gibbous
Mar 23
Last Quarter
Mar 30
New
Apr 7
First Quarter
Apr 15
Full

Hourly Weather History & Observations

Time (CDT) Temp. Windchill Dew Point Humidity Pressure Visibility Wind Dir Wind Speed Gust Speed Precip Events Conditions
12:15 AM 30.7 °F 23.3 °F 26.6 °F 85% 29.93 in 10.0 mi NE 8.1 mph - N/A   Overcast
12:35 AM 30.4 °F 23.6 °F 26.8 °F 86% 29.93 in 10.0 mi NE 6.9 mph - N/A   Overcast
12:55 AM 30.2 °F 22.6 °F 27.1 °F 88% 29.92 in 10.0 mi ENE 8.1 mph - N/A   Overcast
1:15 AM 30.2 °F 21.9 °F 27.1 °F 88% 29.92 in 10.0 mi NE 9.2 mph - N/A   Overcast
1:35 AM 30.2 °F 22.6 °F 27.3 °F 89% 29.91 in 10.0 mi NE 8.1 mph - N/A   Overcast
1:55 AM 30.2 °F 21.9 °F 26.6 °F 86% 29.91 in 10.0 mi ENE 9.2 mph - N/A   Overcast
2:15 AM 30.2 °F 22.6 °F 26.8 °F 87% 29.90 in 10.0 mi NE 8.1 mph - N/A   Overcast
2:35 AM 30.2 °F 23.4 °F 26.8 °F 87% 29.91 in 10.0 mi NE 6.9 mph - N/A   Overcast
2:55 AM 29.8 °F 22.2 °F 26.6 °F 88% 29.90 in 10.0 mi ENE 8.1 mph - N/A   Mostly Cloudy
3:15 AM 30.0 °F 21.7 °F 26.6 °F 87% 29.89 in 10.0 mi NE 9.2 mph - N/A   Mostly Cloudy
3:35 AM 29.7 °F 22.8 °F 26.6 °F 88% 29.88 in 10.0 mi NE 6.9 mph - N/A   Mostly Cloudy
3:55 AM 29.3 °F 22.3 °F 26.6 °F 90% 29.88 in 10.0 mi ENE 6.9 mph - N/A   Scattered Clouds
4:15 AM 29.7 °F 24.7 °F 26.8 °F 89% 29.88 in 10.0 mi ENE 4.6 mph - N/A   Mostly Cloudy
4:35 AM 29.8 °F 23.9 °F 27.1 °F 90% 29.87 in 10.0 mi ENE 5.8 mph - N/A   Overcast
4:55 AM 29.7 °F - 27.1 °F 90% 29.87 in 10.0 mi Calm Calm - N/A   Overcast
5:15 AM 29.7 °F 26.1 °F 27.1 °F 90% 29.87 in 10.0 mi NNE 3.5 mph - N/A   Overcast
5:35 AM 29.8 °F 26.3 °F 27.3 °F 90% 29.87 in 10.0 mi NNE 3.5 mph - N/A   Overcast
5:55 AM 30.0 °F 25.2 °F 27.5 °F 90% 29.87 in 10.0 mi NE 4.6 mph - N/A   Overcast
6:15 AM 30.0 °F 22.4 °F 27.1 °F 89% 29.85 in 10.0 mi ENE 8.1 mph - N/A   Overcast
6:35 AM 30.0 °F 21.7 °F 27.5 °F 90% 29.84 in 10.0 mi East 9.2 mph - N/A   Overcast
6:55 AM 30.0 °F 21.7 °F 27.9 °F 92% 29.84 in 10.0 mi East 9.2 mph - N/A   Overcast
7:15 AM 30.2 °F 24.3 °F 27.5 °F 90% 29.85 in 10.0 mi East 5.8 mph - N/A   Overcast
7:35 AM 30.2 °F 21.9 °F 28.0 °F 92% 29.84 in 5.0 mi East 9.2 mph - N/A Snow Light Snow
7:55 AM 30.2 °F 21.9 °F 28.0 °F 92% 29.84 in 10.0 mi East 9.2 mph - N/A   Overcast
8:15 AM 30.0 °F 23.2 °F 28.2 °F 93% 29.82 in 1.0 mi East 6.9 mph - N/A Snow Light Snow
8:35 AM 30.2 °F 23.4 °F 28.8 °F 94% 29.81 in 0.8 mi East 6.9 mph - N/A Snow Light Snow
8:55 AM 30.0 °F 24.1 °F 29.1 °F 96% 29.79 in 0.8 mi East 5.8 mph - 0.01 in Snow Light Snow
9:15 AM 30.2 °F 24.3 °F 29.3 °F 96% 29.79 in 0.8 mi East 5.8 mph - N/A Snow Light Snow
9:35 AM 30.2 °F 22.6 °F 29.3 °F 96% 29.78 in 1.2 mi NE 8.1 mph - N/A Snow Light Snow
9:55 AM 30.2 °F 24.3 °F 29.7 °F 98% 29.80 in 1.2 mi ENE 5.8 mph - 0.01 in Snow Light Snow
10:15 AM 30.7 °F 24.9 °F 30.2 °F 98% 29.79 in 0.2 mi East 5.8 mph - 0.03 in Snow Snow
10:35 AM 30.6 °F 27.1 °F 29.8 °F 97% 29.81 in 0.2 mi East 3.5 mph - 0.07 in Snow Snow
10:55 AM 30.6 °F 22.4 °F 30.0 °F 98% 29.79 in 0.2 mi East 9.2 mph - 0.10 in Snow Snow
11:15 AM 30.2 °F 21.9 °F 29.7 °F 98% 29.78 in 0.2 mi East 9.2 mph - 0.02 in Snow Snow
11:35 AM 30.7 °F 22.6 °F 30.0 °F 97% 29.76 in 0.5 mi East 9.2 mph - 0.03 in Snow Snow
11:55 AM 30.7 °F 21.4 °F 29.8 °F 96% 29.75 in 0.5 mi East 11.5 mph - 0.04 in Snow Snow
12:15 PM 30.9 °F 21.7 °F 30.0 °F 96% 29.74 in 0.8 mi East 11.5 mph - 0.01 in Snow Light Snow
12:35 PM 31.1 °F 22.4 °F 30.2 °F 96% 29.74 in 0.8 mi ENE 10.4 mph - 0.02 in Snow Light Snow
12:55 PM 31.1 °F 23.1 °F 30.2 °F 96% 29.74 in 1.0 mi ENE 9.2 mph - 0.03 in   Overcast
1:15 PM 31.1 °F 23.1 °F 30.0 °F 96% 29.73 in 1.2 mi ENE 9.2 mph - 0.01 in   Overcast
1:35 PM 31.1 °F 23.1 °F 30.2 °F 96% 29.73 in 2.5 mi ENE 9.2 mph - 0.02 in   Overcast
1:55 PM 30.9 °F 23.5 °F 29.8 °F 96% 29.73 in 4.0 mi NE 8.1 mph - 0.02 in   Overcast
2:15 PM 31.1 °F 23.1 °F 30.2 °F 96% 29.72 in 4.0 mi NE 9.2 mph - N/A Snow Light Snow
2:35 PM 31.1 °F 23.7 °F 30.2 °F 96% 29.73 in 2.5 mi NE 8.1 mph - N/A   Overcast
2:55 PM 31.1 °F 23.7 °F 30.2 °F 96% 29.73 in 2.0 mi NE 8.1 mph - N/A   Overcast
3:15 PM 31.1 °F 22.4 °F 30.2 °F 96% 29.74 in 2.0 mi NE 10.4 mph - N/A   Overcast
3:35 PM 30.7 °F 22.0 °F 30.0 °F 97% 29.74 in 1.8 mi NNE 10.4 mph 16.1 mph N/A Snow Light Snow
3:55 PM 30.2 °F 19.8 °F 29.7 °F 98% 29.75 in 2.5 mi NNE 13.8 mph - N/A   Overcast
4:15 PM 30.2 °F 20.2 °F 29.1 °F 96% 29.76 in 0.8 mi NNE 12.7 mph 19.6 mph N/A Snow Light Snow
4:35 PM 30.2 °F 21.9 °F 29.3 °F 96% 29.78 in 0.8 mi NE 9.2 mph - 0.01 in Snow Snow
4:55 PM 31.1 °F 23.7 °F 30.2 °F 96% 29.80 in 1.0 mi North 8.1 mph - 0.01 in Snow Light Snow
5:15 PM 31.6 °F 26.0 °F 30.6 °F 96% 29.81 in 1.8 mi North 5.8 mph - N/A   Overcast
5:35 PM 32.0 °F 27.5 °F 30.7 °F 95% 29.83 in 2.5 mi North 4.6 mph - N/A   Overcast
5:55 PM 32.0 °F 28.7 °F 31.1 °F 96% 29.84 in 2.5 mi North 3.5 mph - N/A   Overcast
6:15 PM 32.5 °F 28.1 °F 30.2 °F 91% 29.86 in 3.0 mi North 4.6 mph - N/A Snow Light Snow
6:35 PM 32.9 °F 28.5 °F 30.6 °F 91% 29.87 in 10.0 mi North 4.6 mph - N/A Snow Light Snow
6:55 PM 32.9 °F 27.5 °F 30.9 °F 92% 29.88 in 10.0 mi NNW 5.8 mph - N/A   Overcast
7:15 PM 33.4 °F 25.9 °F 30.9 °F 90% 29.90 in 10.0 mi NNW 9.2 mph - N/A   Overcast
7:35 PM 33.8 °F 26.4 °F 30.9 °F 89% 29.91 in 10.0 mi NNW 9.2 mph - N/A   Overcast
7:55 PM 34.3 °F 25.9 °F 30.2 °F 85% 29.92 in 10.0 mi North 11.5 mph - N/A   Overcast
8:15 PM 34.5 °F 26.2 °F 29.5 °F 82% 29.93 in 10.0 mi NNW 11.5 mph 20.7 mph N/A   Overcast
8:35 PM 33.4 °F 22.3 °F 29.7 °F 86% 29.95 in 10.0 mi NW 18.4 mph - N/A   Overcast
8:55 PM 32.0 °F 18.4 °F 27.5 °F 83% 29.97 in 10.0 mi NNW 26.5 mph 29.9 mph N/A   Overcast
9:15 PM 31.6 °F 20.0 °F 26.2 °F 80% 29.98 in 7.0 mi NNW 18.4 mph 25.3 mph N/A   Overcast
9:35 PM 30.7 °F 17.5 °F 24.8 °F 79% 29.99 in 10.0 mi NNW 23.0 mph 29.9 mph N/A   Overcast
9:55 PM 30.0 °F 17.9 °F 23.9 °F 78% 30.01 in 10.0 mi NNW 18.4 mph 27.6 mph N/A   Overcast
10:15 PM 29.8 °F 16.6 °F 23.4 °F 77% 30.02 in 10.0 mi NNW 21.9 mph 27.6 mph N/A   Overcast
10:35 PM 28.4 °F 15.8 °F 22.3 °F 78% 30.04 in 10.0 mi NW 18.4 mph 25.3 mph N/A   Overcast
10:55 PM 27.3 °F 13.3 °F 20.8 °F 77% 30.05 in 10.0 mi NW 21.9 mph 27.6 mph N/A   Overcast
11:15 PM 24.8 °F 11.5 °F 18.1 °F 76% 30.07 in 7.0 mi NW 17.3 mph 23.0 mph N/A   Overcast
11:35 PM 22.6 °F 8.7 °F 15.8 °F 75% 30.08 in 10.0 mi NW 17.3 mph - N/A   Scattered Clouds
11:55 PM 21.2 °F 7.3 °F 14.0 °F 74% 30.10 in 7.0 mi NW 16.1 mph 29.9 mph N/A   Clear